UAL1490 KLAX-KSFO

Flight info

Callsign UAL1490
Flight time 0h 51m
Altitude 30000
Route SUMMR2 STOKD SERFR SERFR4
Aircraft B38M/M-SDE1FGHILORVWXY/HB1

Departure

Time 2026-04-21 01:06
Airport Los Angeles International Airport (KLAX)

Arrival

Time 2026-04-21 01:58
Airport San Francisco International Airport (KSFO)
Time Latitude Longitude Altitude Speed Heading
2026-04-21 00:33 33.94130 -118.39778 125 ft 0 kts 82°
2026-04-21 00:45 33.94129 -118.39785 127 ft 2 kts 82°
2026-04-21 00:46 33.94128 -118.39798 122 ft 2 kts 82°
2026-04-21 00:46 33.94126 -118.39811 122 ft 2 kts 82°
2026-04-21 00:46 33.94124 -118.39826 122 ft 2 kts 96°
2026-04-21 00:46 33.94126 -118.39835 123 ft 0 kts 162°
2026-04-21 00:50 33.94095 -118.39828 124 ft 12 kts 171°
2026-04-21 00:50 33.94007 -118.39825 124 ft 11 kts 184°
2026-04-21 00:51 33.93975 -118.39870 127 ft 7 kts 255°
2026-04-21 00:51 33.93965 -118.39951 123 ft 12 kts 263°
2026-04-21 00:51 33.93953 -118.40074 122 ft 17 kts 263°
2026-04-21 00:51 33.93938 -118.40232 123 ft 21 kts 264°
2026-04-21 00:52 33.93919 -118.40415 127 ft 21 kts 263°
2026-04-21 00:52 33.93903 -118.40572 125 ft 17 kts 263°
2026-04-21 00:52 33.93889 -118.40703 127 ft 15 kts 261°
2026-04-21 00:52 33.93875 -118.40838 127 ft 18 kts 263°
2026-04-21 00:53 33.93859 -118.40993 127 ft 20 kts 263°
2026-04-21 00:53 33.93864 -118.41148 124 ft 14 kts 314°
2026-04-21 00:53 33.93934 -118.41176 124 ft 10 kts 353°
2026-04-21 00:53 33.94038 -118.41189 124 ft 23 kts 353°
2026-04-21 00:54 33.94233 -118.41218 124 ft 33 kts 354°
2026-04-21 00:54 33.94439 -118.41246 125 ft 27 kts 352°
2026-04-21 00:54 33.94614 -118.41275 124 ft 24 kts 352°
2026-04-21 00:54 33.94745 -118.41293 124 ft 12 kts 359°
2026-04-21 00:55 33.94796 -118.41253 123 ft 5 kts 74°
2026-04-21 00:55 33.94807 -118.41176 123 ft 13 kts 82°
2026-04-21 00:55 33.94822 -118.41026 126 ft 23 kts 83°
2026-04-21 00:55 33.94845 -118.40790 126 ft 32 kts 83°
2026-04-21 00:56 33.94871 -118.40541 126 ft 27 kts 83°
2026-04-21 00:56 33.94888 -118.40372 126 ft 8 kts 83°
2026-04-21 00:56 33.94893 -118.40328 125 ft 3 kts 82°
2026-04-21 00:56 33.94895 -118.40309 126 ft 5 kts 82°
2026-04-21 00:57 33.94905 -118.40224 123 ft 12 kts 78°
2026-04-21 00:57 33.94916 -118.40197 125 ft 0 kts 53°
2026-04-21 01:03 33.94916 -118.40194 126 ft 2 kts 71°
2026-04-21 01:03 33.94919 -118.40094 125 ft 24 kts 87°
2026-04-21 01:03 33.94950 -118.39935 124 ft 5 kts 44°
2026-04-21 01:03 33.94951 -118.39934 125 ft 0 kts 44°
2026-04-21 01:04 33.95006 -118.39924 124 ft 12 kts 343°
2026-04-21 01:05 33.95034 -118.40001 126 ft 14 kts 267°
2026-04-21 01:05 33.95005 -118.40287 125 ft 64 kts 263°
2026-04-21 01:05 33.94920 -118.41084 130 ft 125 kts 262°
2026-04-21 01:05 33.94808 -118.42200 331 ft 138 kts 263°
2026-04-21 01:06 33.94696 -118.43379 640 ft 146 kts 262°
2026-04-21 01:06 33.94580 -118.44582 957 ft 153 kts 263°
2026-04-21 01:06 33.94451 -118.45932 1173 ft 166 kts 262°
2026-04-21 01:06 33.94358 -118.47245 1901 ft 140 kts 268°
2026-04-21 01:07 33.94338 -118.48240 2705 ft 113 kts 272°
2026-04-21 01:07 33.94326 -118.49302 2713 ft 136 kts 265°
2026-04-21 01:07 33.94223 -118.50468 2959 ft 146 kts 265°
2026-04-21 01:07 33.94132 -118.51700 3358 ft 146 kts 262°
2026-04-21 01:08 33.94006 -118.52928 3720 ft 154 kts 262°
2026-04-21 01:08 33.93897 -118.54201 4157 ft 153 kts 262°
2026-04-21 01:08 33.93798 -118.55479 4577 ft 154 kts 262°
2026-04-21 01:08 33.93701 -118.56769 4953 ft 157 kts 261°
2026-04-21 01:09 33.93596 -118.58158 5025 ft 182 kts 263°
2026-04-21 01:09 33.93474 -118.59782 5037 ft 207 kts 262°
2026-04-21 01:09 33.93335 -118.61609 5034 ft 231 kts 263°
2026-04-21 01:09 33.93187 -118.63605 5115 ft 246 kts 262°
2026-04-21 01:10 33.93029 -118.65711 5194 ft 258 kts 263°
2026-04-21 01:10 33.92870 -118.67850 5613 ft 252 kts 262°
2026-04-21 01:10 33.92715 -118.69916 6135 ft 244 kts 262°
2026-04-21 01:10 33.92562 -118.71927 6632 ft 238 kts 262°
2026-04-21 01:11 33.92413 -118.73891 7099 ft 233 kts 261°
2026-04-21 01:11 33.92267 -118.75811 7574 ft 228 kts 261°
2026-04-21 01:11 33.92125 -118.77667 8041 ft 224 kts 261°
2026-04-21 01:11 33.91984 -118.79514 8512 ft 220 kts 260°
2026-04-21 01:12 33.91845 -118.81332 9012 ft 215 kts 260°
2026-04-21 01:12 33.91712 -118.83105 9506 ft 211 kts 261°
2026-04-21 01:12 33.91756 -118.84866 9991 ft 208 kts 266°
2026-04-21 01:12 33.91804 -118.86589 10438 ft 203 kts 266°
2026-04-21 01:13 33.91848 -118.88269 10880 ft 201 kts 266°
2026-04-21 01:13 33.91894 -118.90008 11186 ft 216 kts 266°
2026-04-21 01:13 33.91947 -118.91876 11542 ft 230 kts 266°
2026-04-21 01:13 33.92007 -118.93852 11919 ft 243 kts 266°
2026-04-21 01:14 33.92068 -118.95905 12324 ft 256 kts 267°
2026-04-21 01:14 33.92132 -118.98097 12741 ft 268 kts 267°
2026-04-21 01:14 33.92209 -119.00397 13172 ft 281 kts 271°
2026-04-21 01:14 33.92792 -119.02729 13632 ft 303 kts 293°
2026-04-21 01:15 33.93894 -119.04955 14051 ft 317 kts 296°
2026-04-21 01:15 33.95105 -119.07229 14441 ft 329 kts 297°
2026-04-21 01:15 33.95927 -119.08784 14698 ft 336 kts 296°
2026-04-21 01:15 33.97612 -119.12063 15223 ft 351 kts 296°
2026-04-21 01:16 33.98893 -119.14571 15618 ft 362 kts 296°
2026-04-21 01:16 34.00254 -119.17179 16003 ft 374 kts 299°
2026-04-21 01:16 34.02061 -119.19536 16414 ft 393 kts 316°
2026-04-21 01:16 34.04303 -119.21528 16832 ft 404 kts 320°
2026-04-21 01:17 34.06629 -119.23482 17326 ft 410 kts 320°
2026-04-21 01:17 34.08215 -119.24817 17694 ft 413 kts 320°
2026-04-21 01:17 34.10527 -119.26807 18225 ft 417 kts 319°
2026-04-21 01:17 34.12927 -119.28897 18707 ft 421 kts 319°
2026-04-21 01:18 34.15290 -119.30935 19166 ft 425 kts 319°
2026-04-21 01:18 34.17711 -119.33008 19639 ft 429 kts 319°
2026-04-21 01:18 34.20148 -119.35106 20118 ft 432 kts 319°
2026-04-21 01:18 34.22601 -119.37228 20617 ft 435 kts 319°
2026-04-21 01:19 34.25070 -119.39363 21114 ft 438 kts 319°
2026-04-21 01:19 34.27557 -119.41510 21614 ft 440 kts 319°
2026-04-21 01:19 34.30057 -119.43670 22123 ft 442 kts 319°
2026-04-21 01:19 34.32564 -119.45840 22637 ft 444 kts 319°
2026-04-21 01:20 34.35078 -119.48019 23166 ft 445 kts 319°
2026-04-21 01:20 34.37600 -119.50205 23684 ft 447 kts 319°
2026-04-21 01:20 34.40128 -119.52399 24138 ft 447 kts 318°
2026-04-21 01:20 34.42409 -119.54829 24598 ft 440 kts 309°
2026-04-21 01:21 34.44560 -119.57474 25064 ft 441 kts 309°
2026-04-21 01:21 34.46708 -119.60130 25536 ft 441 kts 309°
2026-04-21 01:21 34.48860 -119.62775 26000 ft 441 kts 309°
2026-04-21 01:21 34.51008 -119.65412 26491 ft 439 kts 309°
2026-04-21 01:22 34.53150 -119.68046 26969 ft 438 kts 309°
2026-04-21 01:22 34.55283 -119.70678 27471 ft 438 kts 309°
2026-04-21 01:22 34.57415 -119.73311 27985 ft 437 kts 309°
2026-04-21 01:22 34.59543 -119.75937 28502 ft 435 kts 309°
2026-04-21 01:23 34.61660 -119.78550 29012 ft 433 kts 308°
2026-04-21 01:23 34.63740 -119.81121 29541 ft 431 kts 308°
2026-04-21 01:23 34.65837 -119.83718 30002 ft 432 kts 308°
2026-04-21 01:23 34.67962 -119.86357 30020 ft 442 kts 308°
2026-04-21 01:24 34.72351 -119.91796 30023 ft 455 kts 309°
2026-04-21 01:24 34.76781 -119.97292 30029 ft 456 kts 308°
2026-04-21 01:25 34.81218 -120.02813 30014 ft 456 kts 308°
2026-04-21 01:25 34.85653 -120.08338 30017 ft 456 kts 308°
2026-04-21 01:26 34.90078 -120.13857 30031 ft 455 kts 308°
2026-04-21 01:26 34.94481 -120.19367 30018 ft 456 kts 308°
2026-04-21 01:27 34.98913 -120.24912 30021 ft 457 kts 308°
2026-04-21 01:27 35.03337 -120.30455 30010 ft 455 kts 308°
2026-04-21 01:28 35.07762 -120.36022 30023 ft 458 kts 308°
2026-04-21 01:28 35.12399 -120.41345 30019 ft 462 kts 311°
2026-04-21 01:29 35.17135 -120.46644 30036 ft 462 kts 311°
2026-04-21 01:29 35.21857 -120.51944 30038 ft 461 kts 311°
2026-04-21 01:30 35.26592 -120.57262 30043 ft 463 kts 311°
2026-04-21 01:30 35.31334 -120.62600 30036 ft 463 kts 311°
2026-04-21 01:31 35.36041 -120.67904 30043 ft 463 kts 311°
2026-04-21 01:31 35.40779 -120.73255 30044 ft 464 kts 311°
2026-04-21 01:32 35.45530 -120.78630 30029 ft 463 kts 311°
2026-04-21 01:32 35.50444 -120.83780 30034 ft 469 kts 317°
2026-04-21 01:33 35.55637 -120.88568 30046 ft 472 kts 317°
2026-04-21 01:33 35.60866 -120.93435 30038 ft 471 kts 317°
2026-04-21 01:34 35.66097 -120.98294 30033 ft 472 kts 316°
2026-04-21 01:34 35.71339 -121.03181 30028 ft 473 kts 316°
2026-04-21 01:35 35.76551 -121.08043 30019 ft 474 kts 316°
2026-04-21 01:35 35.81803 -121.12953 30019 ft 474 kts 316°
2026-04-21 01:36 35.87052 -121.17868 30016 ft 474 kts 316°
2026-04-21 01:36 35.92297 -121.22788 30015 ft 476 kts 316°
2026-04-21 01:37 35.97547 -121.27722 30013 ft 478 kts 316°
2026-04-21 01:37 36.02830 -121.32691 30004 ft 477 kts 316°
2026-04-21 01:38 36.08134 -121.37489 30004 ft 463 kts 321°
2026-04-21 01:38 36.13571 -121.41711 29988 ft 461 kts 321°
2026-04-21 01:39 36.18995 -121.45952 29981 ft 463 kts 321°
2026-04-21 01:39 36.24403 -121.50177 29219 ft 464 kts 321°
2026-04-21 01:40 36.27116 -121.52296 28100 ft 451 kts 321°
2026-04-21 01:40 36.29732 -121.54334 27035 ft 442 kts 320°
2026-04-21 01:40 36.32314 -121.56368 26016 ft 436 kts 320°
2026-04-21 01:40 36.34859 -121.58372 25050 ft 432 kts 320°
2026-04-21 01:41 36.37384 -121.60352 24122 ft 427 kts 320°
2026-04-21 01:41 36.39879 -121.62308 23166 ft 422 kts 320°
2026-04-21 01:41 36.42344 -121.64247 22119 ft 417 kts 320°
2026-04-21 01:41 36.44761 -121.66155 21130 ft 414 kts 320°
2026-04-21 01:42 36.47171 -121.68050 20284 ft 407 kts 320°
2026-04-21 01:42 36.49564 -121.69936 19697 ft 408 kts 320°
2026-04-21 01:42 36.51989 -121.71860 19155 ft 415 kts 321°
2026-04-21 01:42 36.54425 -121.73784 18613 ft 415 kts 321°
2026-04-21 01:43 36.56859 -121.75704 18014 ft 414 kts 321°
2026-04-21 01:43 36.59289 -121.77627 17377 ft 414 kts 321°
2026-04-21 01:43 36.61682 -121.79524 16756 ft 413 kts 322°
2026-04-21 01:43 36.64099 -121.81439 16157 ft 412 kts 322°
2026-04-21 01:44 36.66511 -121.83351 15534 ft 411 kts 322°
2026-04-21 01:44 36.68916 -121.85259 14938 ft 409 kts 322°
2026-04-21 01:44 36.71279 -121.87131 14315 ft 388 kts 322°
2026-04-21 01:44 36.73489 -121.88841 13688 ft 362 kts 327°
2026-04-21 01:45 36.75857 -121.89923 13048 ft 373 kts 342°
2026-04-21 01:45 36.78413 -121.90678 12428 ft 380 kts 345°
2026-04-21 01:45 36.81009 -121.91334 11816 ft 382 kts 345°
2026-04-21 01:45 36.83576 -121.92017 11223 ft 382 kts 343°
2026-04-21 01:46 36.86170 -121.92767 10632 ft 383 kts 343°
2026-04-21 01:46 36.88763 -121.93512 10153 ft 381 kts 343°
2026-04-21 01:46 36.91311 -121.94213 10012 ft 367 kts 343°
2026-04-21 01:46 36.93761 -121.94886 10008 ft 359 kts 343°
2026-04-21 01:47 36.96173 -121.95688 10012 ft 357 kts 338°
2026-04-21 01:47 36.98551 -121.96621 10013 ft 358 kts 338°
2026-04-21 01:47 37.00903 -121.97533 9928 ft 349 kts 338°
2026-04-21 01:47 37.03212 -121.98430 9487 ft 349 kts 338°
2026-04-21 01:48 37.05457 -121.99301 8888 ft 326 kts 338°
2026-04-21 01:48 37.07610 -122.00140 8395 ft 330 kts 338°
2026-04-21 01:48 37.09807 -122.01005 8039 ft 330 kts 338°
2026-04-21 01:48 37.11968 -122.01842 7991 ft 319 kts 338°
2026-04-21 01:49 37.14036 -122.02650 8004 ft 304 kts 337°
2026-04-21 01:49 37.16040 -122.03444 7994 ft 301 kts 337°
2026-04-21 01:49 37.18030 -122.04228 7993 ft 300 kts 338°
2026-04-21 01:49 37.20030 -122.05009 8001 ft 301 kts 338°
2026-04-21 01:50 37.22024 -122.05784 8001 ft 299 kts 338°
2026-04-21 01:50 37.23987 -122.06556 7830 ft 300 kts 337°
2026-04-21 01:50 37.25973 -122.07336 7570 ft 298 kts 338°
2026-04-21 01:50 37.27934 -122.08106 7326 ft 292 kts 339°
2026-04-21 01:51 37.29888 -122.08859 7062 ft 295 kts 338°
2026-04-21 01:51 37.31852 -122.09646 6632 ft 299 kts 337°
2026-04-21 01:51 37.33847 -122.10446 6164 ft 303 kts 338°
2026-04-21 01:51 37.35872 -122.11242 5663 ft 307 kts 339°
2026-04-21 01:52 37.37931 -122.12006 5180 ft 310 kts 343°
2026-04-21 01:52 37.42123 -122.13460 4215 ft 314 kts 341°
2026-04-21 01:52 37.44213 -122.14198 3876 ft 311 kts 342°
2026-04-21 01:53 37.46287 -122.14893 3398 ft 314 kts 342°
2026-04-21 01:53 37.48376 -122.15567 3017 ft 296 kts 343°
2026-04-21 01:53 37.50263 -122.16175 2999 ft 272 kts 342°
2026-04-21 01:53 37.52051 -122.16775 3007 ft 260 kts 340°
2026-04-21 01:54 37.53586 -122.17769 3012 ft 240 kts 309°
2026-04-21 01:54 37.54548 -122.19398 2880 ft 231 kts 294°
2026-04-21 01:54 37.55311 -122.21184 2572 ft 232 kts 291°
2026-04-21 01:54 37.56027 -122.22981 2263 ft 228 kts 291°
2026-04-21 01:55 37.56700 -122.24580 2033 ft 188 kts 291°
2026-04-21 01:55 37.57283 -122.25961 1775 ft 172 kts 289°
2026-04-21 01:55 37.57806 -122.27233 1513 ft 153 kts 292°
2026-04-21 01:55 37.58297 -122.28399 1336 ft 149 kts 291°
2026-04-21 01:56 37.58775 -122.29539 1130 ft 148 kts 291°
2026-04-21 01:56 37.59258 -122.30699 940 ft 151 kts 291°
2026-04-21 01:56 37.59738 -122.31850 743 ft 152 kts 294°
2026-04-21 01:56 37.60228 -122.33018 543 ft 155 kts 292°
2026-04-21 01:57 37.60720 -122.34199 335 ft 153 kts 294°
2026-04-21 01:57 37.61220 -122.35391 140 ft 157 kts 291°
2026-04-21 01:57 37.61715 -122.36585 21 ft 135 kts 296°
2026-04-21 01:57 37.62024 -122.37324 17 ft 60 kts 301°
2026-04-21 01:58 37.62140 -122.37593 20 ft 12 kts 294°
2026-04-21 01:58 37.62146 -122.37611 21 ft 8 kts 291°
2026-04-21 01:58 37.62187 -122.37759 21 ft 24 kts 285°
2026-04-21 01:58 37.62217 -122.38008 26 ft 32 kts 277°
2026-04-21 01:59 37.62209 -122.38298 24 ft 32 kts 253°
2026-04-21 01:59 37.62213 -122.38516 23 ft 22 kts 271°
2026-04-21 01:59 37.62184 -122.38644 19 ft 8 kts 209°
2026-04-21 01:59 37.62134 -122.38673 18 ft 10 kts 216°
2026-04-21 02:00 37.62114 -122.38696 17 ft 0 kts 222°